When you browse on this site, cookies collect data to enhance your experience and personalize the content and advertising you see.
Visit our Privacy Policy to learn more. By continuing to use the site, you agree to this use of cookies and data.
  • Em Portugal
  • Lista de países
  • Para 7 dias
  • Temperatura da água
  • Mapas de satélite
  • Mapa do tempo
  • Widgets de tempo
  • user-avatar
    Iniciar Sessão

    Previsão horária em Cieszow

    Hoje, 20 Março, Quarta-feira

    Tempo Temperatura Precipitação Vento Pressão Humidade
    00:00 -1°C° 0 mm 2 m/s 737 mmHg 79%
    01:00 -1°C° 0 mm 2 m/s 738 mmHg 80%
    02:00 -1°C° 0 mm 2 m/s 738 mmHg 81%
    03:00 -1°C° 0 mm 2 m/s 738 mmHg 82%
    04:00 +1°C° 0 mm 1 m/s 738 mmHg 83%
    05:00 +1°C° 0 mm 1 m/s 739 mmHg 82%
    06:00 +1°C° 0 mm 1 m/s 739 mmHg 80%
    07:00 +2°C° 0 mm 1 m/s 739 mmHg 76%
    08:00 +3°C° 0 mm 2 m/s 740 mmHg 68%
    09:00 +4°C° 0 mm 2 m/s 740 mmHg 60%
    10:00 +6°C° 0 mm 2 m/s 740 mmHg 52%
    11:00 +7°C° 0 mm 2 m/s 740 mmHg 48%
    12:00 +7°C° 0 mm 2 m/s 740 mmHg 45%
    13:00 +8°C° 0 mm 2 m/s 740 mmHg 41%
    14:00 +8°C° 0 mm 2 m/s 740 mmHg 42%
    15:00 +9°C° 0 mm 2 m/s 740 mmHg 42%
    16:00 +9°C° 0 mm 2 m/s 740 mmHg 42%
    17:00 +7°C° 0 mm 2 m/s 740 mmHg 49%
    18:00 +7°C° 0 mm 1 m/s 740 mmHg 56%
    19:00 +5°C° 0 mm 1 m/s 740 mmHg 62%
    20:00 +5°C° 0 mm 1 m/s 740 mmHg 64%
    21:00 +4°C° 0 mm 1 m/s 740 mmHg 65%
    22:00 +3°C° 0 mm 2 m/s 740 mmHg 67%
    23:00 +3°C° 0 mm 2 m/s 740 mmHg 66%

    Amanhã, 21 Março, Quinta-feira

    Tempo Temperatura Precipitação Vento Pressão Humidade
    00:00 +3°C° 0 mm 2 m/s 741 mmHg 66%
    01:00 +3°C° 0 mm 2 m/s 741 mmHg 65%
    02:00 +3°C° 0 mm 2 m/s 741 mmHg 66%
    03:00 +3°C° 0 mm 2 m/s 740 mmHg 67%
    04:00 +3°C° 0 mm 2 m/s 740 mmHg 68%
    05:00 +3°C° 0 mm 2 m/s 740 mmHg 70%
    06:00 +3°C° 0 mm 2 m/s 741 mmHg 71%
    07:00 +4°C° 0 mm 2 m/s 741 mmHg 72%
    08:00 +6°C° 0 mm 2 m/s 741 mmHg 69%
    09:00 +8°C° 0 mm 2 m/s 741 mmHg 66%
    10:00 +10°C° 0 mm 2 m/s 742 mmHg 63%
    11:00 +12°C° 0 mm 2 m/s 741 mmHg 62%
    12:00 +12°C° 0 mm 2 m/s 741 mmHg 60%
    13:00 +13°C° 0 mm 2 m/s 741 mmHg 59%
    14:00 +13°C° 0 mm 2 m/s 741 mmHg 59%
    15:00 +14°C° 0 mm 2 m/s 740 mmHg 59%
    16:00 +14°C° 0 mm 2 m/s 740 mmHg 60%
    17:00 +12°C° 0 mm 1 m/s 740 mmHg 66%
    18:00 +11°C° 0 mm 1 m/s 740 mmHg 73%
    19:00 +9°C° 0 mm 1 m/s 740 mmHg 80%
    20:00 +9°C° 0 mm 1 m/s 740 mmHg 82%
    21:00 +8°C° 0 mm 1 m/s 740 mmHg 84%
    22:00 +8°C° 0 mm 1 m/s 740 mmHg 87%
    23:00 +8°C° 0 mm 1 m/s 740 mmHg 87%

    Depois de amanhã, 22 Março, Sexta-feira

    Tempo Temperatura Precipitação Vento Pressão Humidade
    00:00 +7°C° 0 mm 1 m/s 740 mmHg 88%
    01:00 +7°C° 0 mm 1 m/s 740 mmHg 88%
    02:00 +7°C° 0 mm 1 m/s 740 mmHg 88%
    03:00 +7°C° 0 mm 1 m/s 739 mmHg 88%
    04:00 +7°C° 0 mm 1 m/s 739 mmHg 88%
    05:00 +7°C° 0 mm 1 m/s 739 mmHg 87%
    06:00 +7°C° 0 mm 1 m/s 739 mmHg 86%
    07:00 +8°C° 0 mm 1 m/s 740 mmHg 85%
    08:00 +10°C° 0 mm 1 m/s 740 mmHg 78%
    09:00 +11°C° 0 mm 0 m/s 740 mmHg 71%
    10:00 +13°C° 0 mm 0 m/s 740 mmHg 63%
    11:00 +14°C° 0 mm 0 m/s 740 mmHg 60%
    12:00 +15°C° 0 mm 0 m/s 740 mmHg 57%
    13:00 +16°C° 0 mm 0 m/s 739 mmHg 53%
    14:00 +16°C° 0 mm 0 m/s 739 mmHg 53%
    15:00 +18°C° 0 mm 1 m/s 738 mmHg 52%
    16:00 +18°C° 0 mm 1 m/s 738 mmHg 52%
    17:00 +15°C° 0 mm 1 m/s 738 mmHg 58%
    18:00 +14°C° 0 mm 1 m/s 738 mmHg 65%
    19:00 +12°C° 0 mm 1 m/s 737 mmHg 71%
    20:00 +12°C° 0 mm 2 m/s 737 mmHg 72%
    21:00 +10°C° 0 mm 2 m/s 737 mmHg 73%
    22:00 +10°C° 0 mm 2 m/s 737 mmHg 74%
    23:00 +10°C° 0 mm 2 m/s 737 mmHg 74%

    23 Março, Sábado

    Tempo Temperatura Precipitação Vento Pressão Humidade
    00:00 +9°C° 0 mm 2 m/s 737 mmHg 74%
    01:00 +9°C° 0 mm 3 m/s 737 mmHg 74%
    02:00 +9°C° 0 mm 3 m/s 737 mmHg 74%
    03:00 +8°C° 0 mm 3 m/s 736 mmHg 74%
    04:00 +8°C° 0 mm 3 m/s 736 mmHg 75%
    05:00 +8°C° 0 mm 3 m/s 736 mmHg 74%
    06:00 +8°C° 0 mm 3 m/s 736 mmHg 73%
    07:00 +9°C° 0 mm 2 m/s 736 mmHg 72%
    08:00 +11°C° 0 mm 3 m/s 737 mmHg 65%
    09:00 +13°C° 0 mm 3 m/s 737 mmHg 57%
    10:00 +16°C° 0 mm 3 m/s 737 mmHg 50%
    11:00 +17°C° 0 mm 3 m/s 737 mmHg 49%
    12:00 +17°C° 0 mm 3 m/s 737 mmHg 48%
    13:00 +18°C° 0 mm 3 m/s 737 mmHg 47%
    14:00 +18°C° 0 mm 3 m/s 736 mmHg 49%
    15:00 +17°C° 0 mm 3 m/s 736 mmHg 51%
    16:00 +17°C° 0 mm 3 m/s 736 mmHg 52%
    17:00 +14°C° 0 mm 3 m/s 736 mmHg 61%
    18:00 +12°C° 0 mm 3 m/s 736 mmHg 70%
    19:00 +11°C° 0 mm 3 m/s 736 mmHg 78%
    20:00 +10°C° 0 mm 3 m/s 737 mmHg 82%
    21:00 +9°C° 0 mm 2 m/s 737 mmHg 86%
    22:00 +9°C° 0 mm 2 m/s 737 mmHg 90%
    23:00 +8°C° 0 mm 3 m/s 737 mmHg 84%

    24 Março, Domingo

    Tempo Temperatura Precipitação Vento Pressão Humidade
    00:00 +8°C° 0 mm 3 m/s 737 mmHg 79%
    01:00 +7°C° 0 mm 3 m/s 738 mmHg 74%
    02:00 +5°C° 0 mm 3 m/s 737 mmHg 71%
    03:00 +5°C° 0 mm 2 m/s 737 mmHg 67%
    04:00 +4°C° 0 mm 2 m/s 737 mmHg 63%
    05:00 +4°C° 0 mm 2 m/s 737 mmHg 63%
    06:00 +4°C° 0 mm 2 m/s 737 mmHg 63%
    07:00 +5°C° 0 mm 1 m/s 737 mmHg 63%
    08:00 +5°C° 0 mm 2 m/s 737 mmHg 60%
    09:00 +6°C° 0 mm 2 m/s 737 mmHg 58%
    10:00 +7°C° 0 mm 2 m/s 737 mmHg 55%
    11:00 +8°C° 0 mm 2 m/s 736 mmHg 54%
    12:00 +10°C° 0 mm 2 m/s 736 mmHg 53%
    13:00 +12°C° 0 mm 2 m/s 735 mmHg 52%
    14:00 +12°C° 0 mm 2 m/s 735 mmHg 53%
    15:00 +12°C° 0 mm 2 m/s 734 mmHg 54%
    16:00 +12°C° 0 mm 2 m/s 733 mmHg 56%
    17:00 +9°C° 0 mm 2 m/s 733 mmHg 59%
    18:00 +9°C° 0 mm 1 m/s 733 mmHg 63%
    19:00 +8°C° 0 mm 1 m/s 733 mmHg 67%
    20:00 +6°C° 0 mm 0 m/s 732 mmHg 69%
    21:00 +6°C° 0 mm 0 m/s 732 mmHg 72%
    22:00 +5°C° 0 mm 0 m/s 732 mmHg 74%
    23:00 +6°C° 0 mm 1 m/s 732 mmHg 75%

    25 Março, Segunda-feira

    Tempo Temperatura Precipitação Vento Pressão Humidade
    00:00 +6°C° 0 mm 1 m/s 731 mmHg 77%
    01:00 +4°C° 0 mm 2 m/s 731 mmHg 78%
    02:00 +4°C° 0 mm 2 m/s 730 mmHg 76%
    03:00 +4°C° 0 mm 2 m/s 730 mmHg 74%
    04:00 +4°C° 0 mm 2 m/s 730 mmHg 72%
    05:00 +3°C° 0 mm 3 m/s 730 mmHg 74%
    06:00 +4°C° 0 mm 4 m/s 730 mmHg 76%
    07:00 +3°C° 0 mm 5 m/s 730 mmHg 78%
    08:00 +5°C° 0 mm 5 m/s 729 mmHg 70%
    09:00 +4°C° 0 mm 6 m/s 729 mmHg 63%
    10:00 +5°C° 0 mm 7 m/s 729 mmHg 55%
    11:00 +5°C° 0 mm 7 m/s 728 mmHg 56%
    12:00 +5°C° 0 mm 8 m/s 728 mmHg 58%
    13:00 +5°C° 0 mm 8 m/s 727 mmHg 59%
    14:00 +5°C° 0.2 mm 8 m/s 727 mmHg 62%
    15:00 +3°C° 0.2 mm 9 m/s 727 mmHg 64%
    16:00 +2°C° 0.2 mm 9 m/s 727 mmHg 67%
    17:00 +1°C° 0.1 mm 9 m/s 727 mmHg 66%
    18:00 +1°C° 0.1 mm 8 m/s 727 mmHg 66%
    19:00 0°C° 0.1 mm 7 m/s 727 mmHg 65%
    20:00 -1°C° 0 mm 7 m/s 727 mmHg 67%
    21:00 -1°C° 0 mm 7 m/s 727 mmHg 68%
    22:00 -2°C° 0 mm 7 m/s 727 mmHg 69%
    23:00 -2°C° 0 mm 8 m/s 726 mmHg 69%
    Mostrar mais